Regional Weather Roundup
Issued by NWS

Home | Current Version | Previous Version | Graphics & Text | Print | Product List | Glossary Off
Versions: 1 2 3 4 5 6 7 8 9 10 11 12 13 14 15 16 17 18 19 20 21 22 23 24 25 26 27 28 29 30 31 32 33 34 35 36 37 38 39 40 41 42 43 44 45 46 47 48 49 50

076
ASUS43 KTOP 210608
RWRKS

WEATHER ROUNDUP FOR KANSAS
NATIONAL WEATHER SERVICE GOODLAND KS
100 AM CDT SAT APR 21 2018

NOTE:  "FAIR" INDICATES FEW OR NO CLOUDS BELOW 12,000 FEET WITH NO
SIGNIFICANT WEATHER AND/OR OBSTRUCTIONS TO VISIBILITY.

KSZ001>006-013>018-027>032-041>047-210700-
NORTHWEST KANSAS

CITY           SKY/WX    TMP DP  RH WIND       PRES   REMARKS
GOODLAND       LGT RAIN  40  38  93 SE16G29   30.12S WCI  31
6HR MIN TEMP:  39; 6HR MAX TEMP:  41; 6HR PCP:  0.14;

HAYS           LGT RAIN  44  42  93 E15       30.21F
HILL CITY      LGT RAIN  44  42  93 E14       30.22S
6HR MIN TEMP:  44; 6HR MAX TEMP:  51; 6HR PCP:  0.22;

RUSSELL        RAIN      45  44  97 E12       30.21F
6HR MIN TEMP:  45; 6HR MAX TEMP:  57; 6HR PCP:  0.40;

$$

KSZ061>065-074>080-084>089-210700-
SOUTHWEST KANSAS

CITY           SKY/WX    TMP DP  RH WIND       PRES   REMARKS
DODGE CITY     LGT RAIN  44  39  82 E13       30.15S
6HR MIN TEMP:  44; 6HR MAX TEMP:  50; 6HR PCP:  0.32;

ELKHART        CLOUDY    45  44  97 E7        30.06S
GREAT BEND     LGT RAIN  46  43  89 E9        30.19F
LIBERAL        LGT RAIN  44  43  96 E37G43    30.00F FOG
PRATT          LGT RAIN  46  40  80 E8        30.16F
6HR MIN TEMP:  46; 6HR MAX TEMP:  55; 6HR PCP:  0.23;

$$

KSZ066>073-081>083-090>101-210700-
SOUTHEAST KANSAS

CITY           SKY/WX    TMP DP  RH WIND       PRES   REMARKS
CHANUTE        MOCLDY    57  28  33 E8        30.21R
6HR MIN TEMP:  56; 6HR MAX TEMP:  63;

COFFEYVILLE    CLOUDY    55  33  43 E8        30.17S
6HR MIN TEMP:  53; 6HR MAX TEMP:  66;

HUTCHINSON     LGT RAIN  55  33  43 VRB5      30.19F
6HR MIN TEMP:  54; 6HR MAX TEMP:  62; 6HR PCP: TRACE;

MEDICINE LODGE   N/A     49  43  80 E10       30.12F
NEWTON         CLOUDY    52  32  46 E8        30.20F
PARSONS        CLOUDY    56  28  34 E3        30.20R
6HR MIN TEMP:  55; 6HR MAX TEMP:  65;

WICHITA INTL   CLOUDY    55  36  48 E8        30.18S
6HR MIN TEMP:  55; 6HR MAX TEMP:  63; 6HR PCP: TRACE;

WICHITA JABRA  CLOUDY    54  33  45 E7        30.19F
6HR MIN TEMP:  53; 6HR MAX TEMP:  61; 6HR PCP: TRACE;

WICHITA MCCONL CLOUDY    56  31  38 E9        30.18S
WINFIELD       CLOUDY    55  38  52 E6        30.20F
6HR MIN TEMP:  52; 6HR MAX TEMP:  63; 6HR PCP: TRACE;

$$

KSZ007>012-019>026-033>040-048>060-102>105-210700-
NORTHEAST KANSAS

CITY           SKY/WX    TMP DP  RH WIND       PRES   REMARKS
CONCORDIA      LGT RAIN  47  37  68 N7        30.25S
6HR MIN TEMP:  47; 6HR MAX TEMP:  60; 6HR PCP:  0.07;

EMPORIA        CLOUDY    53  31  42 NE6       30.23R
6HR MIN TEMP:  53; 6HR MAX TEMP:  61;

LAWRENCE       CLOUDY    54  26  34 NE8       30.26R
6HR MIN TEMP:  53; 6HR MAX TEMP:  62;

MANHATTAN      CLOUDY    55  27  34 E9        30.25R
6HR MIN TEMP:  55; 6HR MAX TEMP:  62;

MARYSVILLE     CLOUDY    50  30  46 E9        30.27F
OLATHE IND     CLOUDY    55  22  27 E12       30.25F
6HR MIN TEMP:  55; 6HR MAX TEMP:  61;

OLATHE EXE     CLOUDY    53  22  29 E12       30.24F
6HR MIN TEMP:  53; 6HR MAX TEMP:  59;

SALINA         CLOUDY    56  29  35 E8        30.22R
6HR MIN TEMP:  56; 6HR MAX TEMP:  63; 6HR PCP: TRACE;

TOPEKA BILLARD CLOUDY    55  26  32 E10       30.25F
6HR MIN TEMP:  54; 6HR MAX TEMP:  62;

TOPEKA FORBES  CLOUDY    56  26  31 NE13      30.22F
6HR MIN TEMP:  55; 6HR MAX TEMP:  62;

$$




USA.gov is the U.S. government's official web portal to all federal, state and local government web resources and services.